File timestamp: Sat Sep 17 02:00:00 2016, Internal temp: 17.7001953125
1474077601, -0.0280057154595852, -0.0255324169993401, 0.0964570790529251, 32841, 32434, 23240, -163.836685180664
1474077602, -0.00452330941334367, -0.0241226144134998, 0.0971278697252274, 32834, 32449, 23251, NaN
1474077603, 0.0148100974038243, -0.0235948842018843, 0.0968476459383965, 32849, 32468, 23252, NaN
1474077604, 0.0126536218449473, -0.0229216180741787, 0.0971234887838364, 32846, 32457, 23277, NaN
1474077605, -0.0118786375969648, -0.0247917119413614, 0.0974037200212479, 32867, 32450, 23270, NaN
1474077606, -0.0393309071660042, -0.0257288478314877, 0.0974781513214111, 32849, 32440, 23240, NaN
1474077607, -0.0508313104510307, -0.0271443836390972, 0.0969956964254379, 32824, 32433, 23238, NaN
1474077608, -0.0393654182553291, -0.0260810870677233, 0.0967862457036972, 32823, 32436, 23243, NaN
1474077609, -0.0172603018581867, -0.0247628204524517, 0.0971009880304337, 32844, 32434, 23242, NaN
1474077610, -0.0030197543092072, -0.0236767958849669, 0.0971535220742226, 32842, 32457, 23269, NaN
1474077611, -0.00660490337759256, -0.0244075506925583, 0.0972224101424217, 32856, 32447, 23280, NaN
1474077612, -0.0203710868954659, -0.0251107420772314, 0.0966940820217133, 32856, 32454, 23256, NaN
1474077613, -0.0290974173694849, -0.025939803570509, 0.0972827598452568, 32843, 32462, 23260, NaN
1474077614, -0.029196985065937, -0.0267034266144037, 0.0967362821102142, 32847, 32440, 23257, NaN
1474077615, -0.0228372476994991, -0.0274793859571218, 0.0961489155888557, 32849, 32440, 23245, NaN
1474077616, -0.0117285614833236, -0.0270170718431473, 0.0971147194504738, 32838, 32436, 23248, NaN
1474077617, 0.00393145903944969, -0.0262008365243673, 0.0976536571979523, 32831, 32451, 23248, NaN
1474077618, 0.0170009806752205, -0.025027709081769, 0.0980994179844856, 32832, 32462, 23258, NaN
1474077619, 0.020175201818347, -0.0244350656867027, 0.0975596979260445, 32844, 32467, 23275, NaN
1474077620, 0.00835278630256653, -0.0245581604540348, 0.0972461774945259, 32846, 32447, 23261, NaN
1474077620, -0.0085897920653224, -0.0252938661724329, 0.0971057638525963, 32847, 32446, 23242, NaN
1474077621.006, -0.0137414745986462, -0.0252572111785412, 0.0974181219935417, 32837, 32438, 23241, NaN
1474077622.006, 0.00096902169752866, -0.025443572551012, 0.0976646468043327, 32839, 32428, 23226, NaN
1474077623.006, 0.0262084100395441, -0.024677025154233, 0.0988826528191566, 32851, 32444, 23243, NaN
1474077624.006, 0.0468819960951805, -0.0238604750484228, 0.099302239716053, 32847, 32453, 23264, NaN
1474077624.006, 0.0505138672888279, -0.0240064710378647, 0.099274143576622, 32837, 32468, 23266, NaN
1474077625.014, 0.0390651002526283, -0.0247331988066435, 0.0984900742769241, 32826, 32452, 23272, NaN
1474077626.014, 0.0197844840586185, -0.0253778751939535, 0.0989174619317055, 32843, 32448, 23251, NaN
1474077627.014, 0.00615645386278629, -0.0258197020739317, 0.0986422225832939, 32840, 32444, 23253, NaN
1474077628.014, 0.00290151196531951, -0.026065906509757, 0.0992775484919548, 32843, 32442, 23248, NaN
1474077628.014, 0.0113626485690475, -0.0253432840108871, 0.0981710702180862, 32832, 32443, 23243, NaN
1474077629.022, 0.0269835218787193, -0.0242235139012337, 0.0985547453165054, 32845, 32459, 23237, NaN
1474077630.022, 0.0380459390580654, -0.0235205311328173, 0.098613977432251, 32851, 32454, 23261, NaN
1474077631.022, 0.0344714559614658, -0.0236205067485571, 0.0991486683487892, 32852, 32451, 23266, NaN
1474077632.022, 0.015430748462677, -0.0246105305850506, 0.0998610258102417, 32853, 32456, 23263, NaN
1474077632.022, -0.00497066462412477, -0.02536884509027, 0.100100480020046, 32828, 32436, 23247, NaN
1474077633.03, -0.0112126180902123, -0.0251669958233833, 0.101269938051701, 32833, 32432, 23231, NaN
1474077634.03, -0.000546148454304785, -0.0256950985640287, 0.1011897996068, 32836, 32427, 23237, NaN
1474077635.03, 0.0152249401435256, -0.0244791489094496, 0.100787721574306, 32842, 32451, 23253, NaN
1474077636.02, 0.0214298237115145, -0.0240872912108898, 0.100390546023846, 32837, 32467, 23278, NaN
1474077637.02, 0.00995517615228891, -0.0240094792097807, 0.0999894216656685, 32845, 32452, 23269, NaN
1474077638.02, -0.0136511093005538, -0.0248868372291327, 0.100499667227268, 32859, 32464, 23251, NaN
1474077639.02, -0.0311658401042223, -0.0258322469890118, 0.100727282464504, 32847, 32447, 23236, NaN
1474077640.02, -0.0292339008301497, -0.0268835313618183, 0.102407790720463, 32817, 32441, 23238, NaN
1474077641.02, -0.0104475123807788, -0.027405658736825, 0.103120811283588, 32829, 32447, 23250, NaN
1474077642.02, 0.0137923704460263, -0.0272965654730797, 0.103230334818363, 32836, 32443, 23264, NaN
1474077643.02, 0.0262483395636082, -0.0273830592632294, 0.102227732539177, 32852, 32450, 23273, NaN
1474077644.02, 0.0210553295910358, -0.0272543672472239, 0.10229330509901, 32862, 32447, 23254, NaN
1474077645.02, 0.00601720903068781, -0.0282704643905163, 0.102837517857552, 32849, 32443, 23269, NaN
1474077646.02, -0.010589218698442, -0.0274362862110138, 0.102693401277065, 32848, 32462, 23241, NaN
1474077646.02, -0.0202126987278461, -0.0266856383532286, 0.102248668670654, 32854, 32449, 23251, NaN
1474077647.022, -0.0269137565046549, -0.026577053591609, 0.101283177733421, 32858, 32439, 23265, NaN
1474077648.022, -0.0340524911880493, -0.0263463631272316, 0.101884268224239, 32852, 32453, 23256, NaN
1474077649.022, -0.0368422791361809, -0.0268975626677275, 0.10267573595047, 32847, 32448, 23230, NaN
1474077650.022, -0.0306361541152, -0.0264302678406239, 0.103214502334595, 32838, 32460, 23242, NaN
1474077650.022, -0.0187629051506519, -0.0255669206380844, 0.103150732815266, 32839, 32437, 23246, NaN
1474077651.024, -0.00761492783203721, -0.0262760575860739, 0.103670410811901, 32830, 32444, 23266, NaN
1474077652.024, -0.00330647034570575, -0.0264167599380016, 0.102893427014351, 32854, 32449, 23259, NaN
1474077653.024, -0.00629102298989892, -0.0259950999170542, 0.102781474590302, 32845, 32437, 23260, NaN
1474077654.024, -0.0120255798101425, -0.0274867229163647, 0.102029949426651, 32849, 32441, 23256, NaN
1474077655.024, -0.0142930559813976, -0.0274334959685802, 0.101402647793293, 32847, 32448, 23245, -165.108581542969
1474077656.024, -0.0094150435179472, -0.0270030852407217, 0.101338990032673, 32841, 32432, 23242, NaN
1474077657.024, -0.00050712563097477, -0.0255493633449078, 0.100798338651657, 32833, 32444, 23270, NaN
1474077658.024, 0.00495563261210918, -0.02505237236619, 0.101305559277534, 32840, 32447, 23276, NaN
1474077659.024, 0.00130239559803158, -0.0249556917697191, 0.10171814262867, 32846, 32439, 23269, NaN
1474077660.024, -0.00773889198899269, -0.0257464554160833, 0.101672671735287, 32841, 32450, 23251, NaN
1474077661.024, -0.0130438040941954, -0.0256565641611814, 0.101569026708603, 32840, 32448, 23256, NaN
1474077662.024, -0.012281090952456, -0.0266088470816612, 0.100945420563221, 32851, 32451, 23254, NaN
1474077663.024, -0.00294591067358851, -0.0271388441324234, 0.100460603833199, 32848, 32434, 23241, NaN
1474077664.024, 0.00983480457216501, -0.0263675004243851, 0.100684769451618, 32850, 32439, 23252, NaN
1474077665.024, 0.0213336236774921, -0.0262583140283823, 0.1004438996315, 32831, 32438, 23244, NaN
1474077666.024, 0.0317070484161377, -0.0250306744128466, 0.100339338183403, 32827, 32452, 23251, NaN
1474077667.024, 0.0363757610321045, -0.0248687416315079, 0.100132316350937, 32832, 32444, 23275, NaN
1474077668.024, 0.0305757895112038, -0.0250285342335701, 0.0992550328373909, 32845, 32451, 23264, NaN
1474077669.024, 0.0186644606292248, -0.0252344813197851, 0.0994194149971008, 32838, 32460, 23251, NaN
1474077670.024, 0.00845557916909456, -0.0253231413662434, 0.0983627289533615, 32838, 32449, 23250, NaN
1474077671.024, -0.000985730905085802, -0.0254031606018543, 0.0977530628442764, 32836, 32442, 23261, NaN
1474077672.024, -0.0107156075537205, -0.0254467763006687, 0.0975110456347466, 32847, 32446, 23250, NaN
1474077673.024, -0.0129922302439809, -0.0250156559050083, 0.0978609770536423, 32845, 32433, 23230, NaN
1474077674.024, -0.00203491211868823, -0.0240702889859676, 0.0990185588598251, 32827, 32452, 23247, NaN
1474077675.024, 0.0133657762780786, -0.0234214272350073, 0.0995100066065788, 32822, 32444, 23269, NaN
1474077676.024, 0.0238892398774624, -0.0221736449748278, 0.100136481225491, 32846, 32452, 23255, NaN
1474077677.024, 0.0221854336559772, -0.0220569185912609, 0.0999716520309448, 32833, 32449, 23272, NaN
1474077678.024, 0.009605398401618, -0.0225004926323891, 0.0998977348208427, 32850, 32464, 23261, NaN
1474077678.024, -0.00854108575731516, -0.0244707111269236, 0.099018894135952, 32845, 32438, 23252, NaN
1474077679.03, -0.0217150151729584, -0.0250577982515097, 0.099265068769455, 32849, 32437, 23241, NaN
1474077680.03, -0.0227940864861012, -0.0246968902647495, 0.0995040312409401, 32842, 32434, 23243, NaN
1474077681.03, -0.0140693010762334, -0.0240496788173914, 0.0989227592945099, 32842, 32448, 23245, NaN
1474077682.03, -0.00583377154543996, -0.0232707634568214, 0.0991489067673683, 32833, 32456, 23267, NaN
1474077682.03, -0.00522615341469646, -0.0223169047385454, 0.0995583385229111, 32834, 32461, 23276, NaN
1474077683.038, -0.0145989768207073, -0.0224254541099072, 0.0993015617132187, 32840, 32473, 23264, NaN
1474077684.038, -0.0265709776431322, -0.0229482389986515, 0.0973197817802429, 32848, 32446, 23239, NaN
1474077685.038, -0.0303212087601423, -0.0242119710892439, 0.0959827750921249, 32848, 32440, 23244, NaN
1474077686.038, -0.0217467416077852, -0.0241213571280241, 0.0961189195513725, 32836, 32435, 23238, NaN
1474077686.038, -0.00565794389694929, -0.0241662655025721, 0.0963028743863106, 32832, 32445, 23235, NaN
1474077687.028, 0.0158772952854633, -0.0237130559980869, 0.096272386610508, 32846, 32444, 23243, NaN
1474077688.028, 0.0329972319304943, -0.022936062887311, 0.0965497493743896, 32850, 32448, 23245, NaN
1474077689.028, 0.0316980294883251, -0.0224248189479113, 0.0953207388520241, 32843, 32462, 23274, NaN
1474077690.028, 0.0120051447302103, -0.0228072218596935, 0.0940861701965332, 32842, 32448, 23278, NaN
1474077690.028, -0.0101202223449945, -0.0232206583023071, 0.0937887504696846, 32851, 32440, 23240, NaN
1474077691.036, -0.0134886465966702, -0.0238196477293968, 0.094276137650013, 32850, 32436, 23234, NaN
1474077692.036, 0.00287888571619987, -0.0228764750063419, 0.094580166041851, 32857, 32437, 23231, NaN
1474077693.026, 0.0197718609124422, -0.0220308043062687, 0.0955665037035942, 32845, 32450, 23266, NaN
1474077694.026, 0.0202011466026306, -0.0228064153343439, 0.0960361808538437, 32841, 32451, 23261, NaN
1474077695.026, 0.00895228050649166, -0.0234914924949408, 0.0965744405984879, 32838, 32443, 23252, NaN
1474077696.026, -0.00124640157446265, -0.0242608264088631, 0.0970184132456779, 32834, 32451, 23265, NaN
1474077697.026, -0.00590577302500606, -0.0245525538921356, 0.0961938798427582, 32849, 32440, 23243, NaN
1474077698.026, -0.00831896625459194, -0.0245235729962587, 0.0955652743577957, 32840, 32444, 23249, NaN
1474077699.026, -0.00810379069298506, -0.023948960006237, 0.0962774381041527, 32860, 32433, 23233, NaN
1474077700.026, -0.00182990846224129, -0.0235527940094471, 0.0965079367160797, 32844, 32444, 23244, NaN
1474077701.026, 0.00811173673719168, -0.0230416599661112, 0.0959082022309303, 32840, 32453, 23253, NaN
1474077702.026, 0.0152632240206003, -0.021892111748457, 0.0952569618821144, 32842, 32450, 23261, NaN
1474077703.026, 0.0156103484332561, -0.0208550132811069, 0.0956493392586708, 32844, 32446, 23245, NaN
1474077704.026, 0.0105338590219617, -0.0213773846626282, 0.0959442555904388, 32834, 32440, 23271, NaN
1474077705.026, -0.000592677213717252, -0.0225117951631546, 0.095281220972538, 32853, 32435, 23248, NaN
1474077706.026, -0.0127316443249583, -0.0232196021825075, 0.0953475385904312, 32833, 32437, 23250, NaN
1474077707.026, -0.0154572045430541, -0.0234099589288235, 0.0952833294868469, 32841, 32442, 23237, NaN
1474077708.026, -0.00998029951006174, -0.0225589741021395, 0.0946871265769005, 32836, 32446, 23246, NaN
1474077709.026, -0.00394517509266734, -0.021506305783987, 0.0951221436262131, 32837, 32443, 23247, NaN
1474077710.026, 2.54420119745191e-05, -0.0210538003593683, 0.0945455729961395, 32852, 32445, 23254, NaN
1474077711.026, 0.00176021840889007, -0.0210702922195196, 0.0945370346307755, 32835, 32462, 23253, -170.084548950195
1474077712.026, 0.000672291207592934, -0.0209221225231886, 0.0952210053801537, 32849, 32456, 23248, NaN
1474077713.026, -0.000183435986400582, -0.0208929777145386, 0.0957992374897003, 32843, 32450, 23251, NaN
1474077714.026, -0.000667721091303974, -0.0205316916108131, 0.0960168391466141, 32844, 32433, 23253, NaN
1474077715.026, 9.17495854082517e-05, -0.0212207976728678, 0.0967885851860046, 32828, 32443, 23257, NaN
1474077716.026, 0.00265184370800853, -0.0197704285383224, 0.0969503968954086, 32824, 32434, 23256, NaN
1474077717.026, 0.00453192926943302, -0.0187112651765347, 0.0966604426503181, 32823, 32452, 23263, NaN
1474077718.026, -0.00160498067270964, -0.0178921055048704, 0.0964273810386658, 32856, 32457, 23257, NaN
1474077719.026, -0.0158576723188162, -0.0187253747135401, 0.0960143357515335, 32840, 32443, 23269, NaN
1474077720.026, -0.0285789836198092, -0.0198400337249041, 0.0958573296666145, 32853, 32449, 23244, NaN
1474077721.026, -0.0251598302274942, -0.0199405010789633, 0.0960194021463394, 32842, 32434, 23234, NaN
1474077722.026, -0.00735543202608824, -0.0191158726811409, 0.0960186347365379, 32846, 32440, 23236, NaN
1474077723.026, 0.0117332758381963, -0.0191446207463741, 0.0959336310625076, 32843, 32439, 23258, NaN
1474077724.026, 0.0186592619866133, -0.0191375277936459, 0.0942647978663445, 32841, 32443, 23271, NaN
1474077725.026, 0.00698704784736037, -0.0194310192018747, 0.0928566455841064, 32837, 32441, 23268, NaN
1474077726.026, -0.0125853661447763, -0.0201547909528017, 0.0924986377358437, 32821, 32442, 23264, NaN
1474077727.026, -0.0232449993491173, -0.0215629432350397, 0.091958113014698, 32843, 32440, 23228, NaN
1474077728.026, -0.01783730648458, -0.0210139155387878, 0.092198021709919, 32838, 32432, 23238, NaN
1474077729.026, -0.00461779162287712, -0.0204596687108278, 0.0922388508915901, 32843, 32443, 23253, NaN
1474077730.026, 0.00425104796886444, -0.0200030971318483, 0.0922755375504494, 32843, 32448, 23265, NaN
1474077731.026, 0.00887788739055395, -0.0202469360083342, 0.0916164293885231, 32854, 32462, 23245, NaN
1474077732.026, 0.013231597840786, -0.020226014778018, 0.0922324508428574, 32844, 32452, 23255, NaN
1474077733.026, 0.0147007592022419, -0.020542761310935, 0.0932982340455055, 32834, 32438, 23265, NaN
1474077733.026, 0.0104852495715022, -0.0215013865381479, 0.0930950865149498, 32843, 32434, 23265, NaN
1474077734.032, 0.00639178650453687, -0.0217752251774073, 0.0937244221568108, 32859, 32429, 23233, NaN
1474077735.032, 0.0111321397125721, -0.0202276725322008, 0.0945339873433113, 32835, 32449, 23253, NaN
1474077736.032, 0.0196604263037443, -0.019478427246213, 0.0938467457890511, 32835, 32446, 23242, NaN
1474077737.032, 0.0205151736736298, -0.01772590726614, 0.093420647084713, 32846, 32446, 23269, NaN
1474077737.032, 0.010471023619175, -0.0188992638140917, 0.0930036753416061, 32854, 32455, 23254, NaN
1474077738.038, -5.13065751874819e-05, -0.0192198902368546, 0.0932680740952492, 32859, 32445, 23238, NaN
1474077739.038, -0.00247562164440751, -0.018920348957181, 0.0938958302140236, 32839, 32437, 23232, NaN
1474077740.038, 0.00190086395014077, -0.0189819056540728, 0.0939853191375732, 32842, 32437, 23248, NaN
1474077741.038, 0.0105777280405164, -0.0191155821084976, 0.0948863849043846, 32847, 32435, 23254, NaN
1474077741.038, 0.0182217992842197, -0.0181003008037806, 0.0958053693175316, 32818, 32439, 23266, NaN
1474077742.046, 0.0231901109218597, -0.0181234180927277, 0.095531053841114, 32838, 32435, 23241, NaN
1474077743.046, 0.0222491640597582, -0.0173294767737389, 0.0958856865763664, 32823, 32442, 23272, NaN
1474077744.046, 0.0120736183598638, -0.0179731231182814, 0.0955725610256195, 32851, 32444, 23257, NaN
1474077745.046, -0.00523874582722783, -0.0184506867080927, 0.0953420326113701, 32843, 32451, 23259, NaN
1474077745.046, -0.0204159505665302, -0.018989996984601, 0.0950202345848083, 32846, 32445, 23254, NaN
1474077746.054, -0.0285787414759398, -0.0191418472677469, 0.0950373560190201, 32837, 32461, 23268, NaN
1474077747.054, -0.0312388297170401, -0.0204186104238033, 0.0952198356389999, 32844, 32450, 23255, NaN
1474077748.054, -0.0279716532677412, -0.0210756435990334, 0.0960344448685646, 32839, 32443, 23248, NaN
1474077749.054, -0.0117040816694498, -0.0206774696707726, 0.0967402756214142, 32835, 32437, 23243, NaN
1474077749.054, 0.0145937036722898, -0.0189764611423016, 0.0970233157277107, 32840, 32447, 23248, NaN
1474077750.062, 0.0313278399407864, -0.0181397274136543, 0.0972096174955368, 32832, 32466, 23275, NaN
1474077751.052, 0.0226107314229012, -0.0192478504031897, 0.0967517048120499, 32851, 32459, 23274, NaN
1474077752.052, 0.00109102157875896, -0.0207269005477428, 0.096389003098011, 32853, 32452, 23260, NaN
1474077753.052, -0.011427354067564, -0.0216653253883123, 0.0969528406858444, 32860, 32442, 23230, NaN
1474077754.052, -0.00803056824952364, -0.0220512114465237, 0.0977789685130119, 32834, 32428, 23230, NaN
1474077755.052, 0.00989125203341246, -0.0216112732887268, 0.0976425483822823, 32843, 32446, 23244, NaN
1474077756.052, 0.0266258139163256, -0.0207883045077324, 0.0979861840605736, 32834, 32448, 23271, NaN
1474077757.052, 0.025385269895196, -0.0199559759348631, 0.0987298488616943, 32831, 32452, 23281, NaN
1474077758.052, 0.00318709551356733, -0.0191467553377151, 0.098133847117424, 32842, 32467, 23274, NaN
1474077759.052, -0.0239908471703529, -0.0202148761600256, 0.0979610085487366, 32846, 32450, 23259, NaN
1474077760.052, -0.0375474356114864, -0.0206378884613514, 0.0988171622157097, 32839, 32433, 23239, NaN
1474077761.052, -0.0283299777656794, -0.0211455412209034, 0.0984718278050423, 32832, 32434, 23224, NaN
1474077762.052, 0.000936767784878612, -0.0209201499819756, 0.0989266559481621, 32824, 32448, 23243, NaN
1474077763.052, 0.0293484535068274, -0.0200728941708803, 0.0993267744779587, 32847, 32457, 23259, NaN
1474077764.052, 0.0341242328286171, -0.0193190686404705, 0.0990312397480011, 32847, 32461, 23274, NaN
1474077765.052, 0.00912708882242441, -0.0199214890599251, 0.0992700383067131, 32841, 32455, 23276, NaN
1474077766.052, -0.0266217570751905, -0.0213671755045652, 0.0998281911015511, 32844, 32445, 23257, -171.258163452148
1474077767.052, -0.0468100309371948, -0.0217869710177183, 0.0999628826975822, 32845, 32430, 23222, NaN
1474077768.052, -0.0382536016404629, -0.0212844554334879, 0.100620746612549, 32834, 32438, 23222, NaN
1474077769.052, -0.0122449100017548, -0.0205414835363626, 0.101225160062313, 32850, 32437, 23263, NaN
1474077770.052, 0.00201211916282773, -0.0204226933419704, 0.101378567516804, 32854, 32443, 23275, NaN
1474077771.052, -0.00965454429388046, -0.0199151877313852, 0.102729983627796, 32845, 32455, 23272, NaN
1474077772.052, -0.0376741141080856, -0.020463490858674, 0.10262256115675, 32824, 32455, 23275, NaN
1474077773.052, -0.0572886727750301, -0.0219504125416279, 0.101866997778416, 32834, 32442, 23238, NaN
1474077774.052, -0.0556416399776936, -0.0222399532794952, 0.10157585889101, 32843, 32432, 23240, NaN
1474077775.052, -0.0370549187064171, -0.0214972048997879, 0.101922534406185, 32842, 32417, 23243, NaN
1474077776.052, -0.0118528502061963, -0.0207670815289021, 0.102561563253403, 32835, 32439, 23246, NaN
1474077777.052, 0.00891737826168537, -0.0200917795300484, 0.103549540042877, 32846, 32451, 23252, NaN
1474077778.052, 0.0171051826328039, -0.0201493762433529, 0.102863915264606, 32851, 32470, 23273, NaN
1474077779.052, 0.00629621837288141, -0.0192892272025347, 0.102459460496902, 32862, 32454, 23264, NaN
1474077780.052, -0.0184294786304235, -0.0201171468943357, 0.102637104690075, 32846, 32439, 23272, NaN
1474077781.052, -0.0378409028053284, -0.0214474145323038, 0.102912977337837, 32835, 32435, 23244, NaN
1474077782.052, -0.0340331792831421, -0.0221255961805582, 0.102603442966938, 32839, 32429, 23236, NaN
1474077783.052, -0.0108770485967398, -0.0213430151343346, 0.102329693734646, 32832, 32430, 23251, NaN
1474077784.052, 0.0164910927414894, -0.019717013463378, 0.102384246885777, 32857, 32456, 23253, NaN
1474077785.052, 0.0368924476206303, -0.0198094677180052, 0.103031754493713, 32845, 32458, 23262, NaN
1474077786.052, 0.0462803840637207, -0.0194483157247305, 0.103398263454437, 32856, 32466, 23255, NaN
1474077787.052, 0.0437339060008526, -0.020092636346817, 0.103338293731213, 32856, 32450, 23266, NaN
1474077788.052, 0.0298916827887297, -0.0208066534250975, 0.10381194204092, 32830, 32452, 23274, NaN
1474077789.052, 0.0127920098602772, -0.0218763798475266, 0.103471033275127, 32826, 32429, 23258, NaN
1474077790.052, 0.00701149133965373, -0.0217850431799889, 0.102847777307034, 32824, 32444, 23257, NaN
1474077791.052, 0.0173086319118738, -0.0217626001685858, 0.102690376341343, 32844, 32429, 23246, NaN
1474077792.052, 0.0358009077608585, -0.0213466752320528, 0.102965660393238, 32852, 32444, 23246, NaN
1474077792.052, 0.0487575531005859, -0.0200973730534315, 0.10315179079771, 32854, 32448, 23264, NaN
1474077793.058, 0.0505951941013336, -0.0199319813400507, 0.103572487831116, 32846, 32457, 23258, NaN
1474077794.058, 0.0438712611794472, -0.0197922829538584, 0.10366652905941, 32843, 32447, 23262, NaN
1474077795.058, 0.0338719673454762, -0.020786726847291, 0.103375628590584, 32852, 32446, 23256, NaN
1474077796.058, 0.0245912056416273, -0.0213637091219425, 0.104085870087147, 32833, 32439, 23250, NaN
1474077796.058, 0.0198369771242142, -0.0223872624337673, 0.105433523654938, 32811, 32444, 23255, NaN
1474077797.064, 0.0231938641518354, -0.0217971485108137, 0.105231821537018, 32827, 32436, 23244, NaN
1474077798.064, 0.0294653791934252, -0.0204888880252838, 0.104807458817959, 32850, 32434, 23250, NaN
1474077799.064, 0.025546757504344, -0.0200679488480091, 0.103399619460106, 32854, 32445, 23268, NaN
1474077800.064, 0.0109915025532246, -0.0191467832773924, 0.103681430220604, 32837, 32457, 23258, NaN
1474077800.064, 0.000979133415967226, -0.0191925633698702, 0.103790067136288, 32853, 32443, 23251, NaN
1474077801.072, -0.00104911788366735, -0.0198628772050142, 0.104382000863552, 32866, 32448, 23228, NaN
1474077802.072, 0.0101789366453886, -0.0194606781005859, 0.10484254360199, 32861, 32454, 23248, NaN
1474077803.072, 0.0235181152820587, -0.0204958021640778, 0.105534762144089, 32855, 32441, 23238, NaN
1474077804.072, 0.028457086533308, -0.0204065311700106, 0.106040634214878, 32834, 32432, 23258, NaN
1474077804.072, 0.0232833623886108, -0.0197797100991011, 0.10642171651125, 32829, 32453, 23249, NaN
1474077805.08, 0.0101183978840709, -0.0197839140892029, 0.105477370321751, 32859, 32438, 23258, NaN
1474077806.08, -0.00945674441754818, -0.0194949842989445, 0.10602879524231, 32848, 32437, 23249, NaN
1474077807.08, -0.0303750578314066, -0.0188988801091909, 0.105529174208641, 32833, 32445, 23266, NaN
1474077808.08, -0.0464154146611691, -0.0190396215766668, 0.104322709143162, 32830, 32452, 23255, NaN
1474077809.07, -0.0538366995751858, -0.0182712152600288, 0.104971088469028, 32839, 32447, 23248, NaN
1474077810.078, -0.0529099628329277, -0.0179218407720327, 0.104427881538868, 32863, 32448, 23245, NaN
1474077811.068, -0.047275073826313, -0.0183551590889692, 0.104295127093792, 32860, 32434, 23241, NaN
1474077812.068, -0.0389701649546623, -0.0191695727407932, 0.104953788220882, 32842, 32455, 23248, NaN
1474077813.068, -0.0300411842763424, -0.0186208914965391, 0.105840086936951, 32837, 32442, 23247, NaN
1474077814.068, -0.0203259624540806, -0.0178221724927425, 0.105993457138538, 32845, 32452, 23254, NaN
1474077815.068, -0.0112874517217278, -0.0184941701591015, 0.105409078299999, 32852, 32441, 23260, NaN